(T05) ATLAS-HKO, Haleakala  (N20.707573 W156.257010)  US/Hawaii.  Observers
   L. Denneau, A. Heinze, H. Weiland, J. Tonry, H. Flewelling, A.
   Fitzsimmons, D. Young, B. Stalder. Measurers L. Denneau, A. Heinze, J.
   Tonry. 0.5-m f/2.0 Schmidt + CCD.
(X31) Galileo Galilei Observatory, Oro Verde  (S31.823022 W60.520660)
   Argentina.
(Z84) Calar Alto-Schmidt  (N37.224049 W2.548210)  Spain.

Orbital elements:  C0MHM82
   Perihelion 2019 Jul 7.065195 +/- 0.0254 TT =  1:33:52 (JD 2458671.565195)
Epoch 2019 May 24.0 TT = JDT 2458627.5   Earth MOID: 0.0749   AutoNEOCP
M 345.75703586 +/- 0.26             (J2000 ecliptic)
n   0.32322480 +/- 0.00585          Peri.   48.13231 +/- 0.025
a   2.10280786 +/- 0.0254           Node   239.70431 +/- 0.016
e   0.5135660 +/- 0.00584           Incl.    9.00089 +/- 0.07
P   3.05                   H 21.7   G  0.15   U  9.3  
q 1.02287709 +/- 8.85e-5    Q 3.18273863 +/- 0.051
From 93 observations 2019 May 14-24; mean residual 3".49
Residuals in arcseconds: 
190514 G96  .04-  .55-    190516 I52  .14+  1.4+    190522 P93  1.4-  .90-    
190514 G96  .04+  .40-    190516 I52  .45+  .35+    190522 K63  1.8-  1.4-    
190514 G96  .27+  .50-    190516 595  .10+  .51+    190522 K63  2.2-  1.8-    
190514 H01  .15+  .36-    190516 595  .44+  .10+    190522 K63  1.4-  1.3-    
190514 H01  .10+  .39-    190516 L01  .73+  .37+    190522 L01  1.3-  1.3-    
190514 H01  .06+  .43-    190516 L01  .63+  .69+    190522 L01  1.3-  1.3-    
190514 H01  .19+  .44-    190516 L01  .41+  1.0+    190522 L01  1.5-  1.3-    
190514 I52  .06-  .08-    190516 L01  .79+  .52+    190522 L01  1.2-  1.2-    
190514 I52  .52+  .29-    190519 L29  .41-  .41+    190522 L01  1.3-  1.3-    
190514 I52  .08-  .28-    190519 L29  .14+  .30+    190522 L01  1.4-  1.3-    
190514 E23  .12+  .17+    190519 L29  .24-  .30+    190522 C95  1.3-  1.4-    
190514 E23  .00   .50-    190520 J95  .45-  .39+    190522 C95  1.1-  1.3-    
190514 E23  .25-  .40-    190520 J95  .03-  .58+    190522 C95  1.5-  1.3-    
190514 Z84  .10+  .01+    190520 J95  .21-  .33-    190522 C95  1.3-  1.4-    
190514 Z84  .06+  .35-    190521 807  .33-  .38-    190522 C95  1.1-  1.3-    
190514 I93  .27-  .49-    190521 807  .45-  .30-    190523 X31  1.8-  1.9-    
190514 I93  .22-  .98+    190521 807  .35-  .27-    190523 X31  1.4-  1.9-    
190514 I93  .17-  .15+    190521 958  .72-  .40+    190523 X31  1.2-  1.7-    
190515 I47  .59+  .30-    190521 J69  .44-  .25-    190523 K41 18.6+ 26.1+    
190515 I47  .57+  .51-    190521 J69  .22-  .40+    190523 K41 16.7+ 19.4+    
190515 I47  .37+  .92-    190521 958  .47-  .67-    190523 K41 14.6+  9.3+    
190515 I52  .32+  .13-    190521 J69  .15+  .62+    190524 I47  2.4-  3.4-    
190515 I52  .30-  .41-    190521 958  .85-  .03+    190524 I47  2.2-  3.5-    
190515 I52  .13-  .42+    190522 T05  .68-  .91-    190524 I47  2.3-  3.4-    
190515 L29  .13-  .62-    190522 T05  .70-  1.1-    190524 I52  2.2-  3.1-    
190515 L29  .28+  .15-    190522 T05  1.2-  .89-    190524 I52  2.0-  2.8-    
190515 L29  .38-  .10-    190522 T05  .64-  1.4-    190524 I52  2.1-  3.4-    
190516 I47  .34+  .40+    190522 P93  1.2-  1.3-    190524 I52  2.1-  3.3-    
190516 I47  .54+  .23+    190522 P93  1.1-  .65-    190524 P93  2.1-  3.8-    
190516 I47  .51+  .19+    190522 P93  1.1-  1.5-    190524 P93  1.9-  4.1-    
190516 I52  .88+  3.0+    190522 P93  1.2-  .87-    190524 P93  2.5-  3.6-    

Ephemerides (geocentric):
Date (UTC) HH   RA              Dec         delta   r     elong  mag " sig PA
---- -- -- --  -------------   -----------  ------ ------ -----  --- ---- ---
2019 05 24 15  14 52 05.767   -15 04 06.05  .14025 1.1469 162.1 18.5 .454  81
2019 05 24 16  14 52 09.953   -15 01 10.81  .14005 1.1467 162.1 18.5 .466  82
2019 05 24 17  14 52 14.152   -14 58 15.07  .13984 1.1465 162.0 18.5 .478  84
2019 05 24 18  14 52 18.367   -14 55 18.84  .13964 1.1463 162.0 18.5 .491  85
2019 05 24 19  14 52 22.596   -14 52 22.11  .13943 1.1461 162.0 18.5 .504  87
2019 05 24 20  14 52 26.840   -14 49 24.89  .13923 1.1459 161.9 18.5 .517  88
2019 05 24 21  14 52 31.099   -14 46 27.17  .13903 1.1457 161.9 18.5 .531  89
2019 05 24 22  14 52 35.373   -14 43 28.95  .13882 1.1454 161.8 18.5 .545  91
2019 05 24 23  14 52 39.661   -14 40 30.22  .13862 1.1452 161.8 18.5 .560  92
2019 05 25 00  14 52 43.965   -14 37 31.00  .13842 1.1450 161.7 18.5 .575  93
2019 05 25 01  14 52 48.283   -14 34 31.27  .13822 1.1448 161.7 18.5 .590  94
2019 05 25 02  14 52 52.617   -14 31 31.03  .13801 1.1446 161.7 18.5 .606  95
2019 05 25 03  14 52 56.965   -14 28 30.29  .13781 1.1444 161.6 18.5 .622  96
2019 05 25 04  14 53 01.329   -14 25 29.04  .13761 1.1441 161.6 18.5 .638  97
2019 05 25 05  14 53 05.708   -14 22 27.28  .13741 1.1439 161.5 18.5 .654  98
2019 05 25 06  14 53 10.102   -14 19 25.01  .13721 1.1437 161.5 18.5 .671  99
2019 05 25 07  14 53 14.512   -14 16 22.22  .13701 1.1435 161.4 18.5 .689 100
2019 05 25 08  14 53 18.936   -14 13 18.92  .13681 1.1433 161.4 18.5 .706 101
2019 05 25 09  14 53 23.377   -14 10 15.10  .13660 1.1431 161.4 18.5 .724 102
2019 05 25 10  14 53 27.832   -14 07 10.77  .13640 1.1429 161.3 18.5 .742 103
2019 05 25 11  14 53 32.303   -14 04 05.92  .13620 1.1426 161.3 18.5 .761 104
2019 05 25 12  14 53 36.790   -14 01 00.54  .13600 1.1424 161.2 18.5 .779 105
2019 05 25 13  14 53 41.292   -13 57 54.65  .13580 1.1422 161.2 18.5 .799 105
2019 05 25 14  14 53 45.810   -13 54 48.23  .13560 1.1420 161.1 18.5 .818 106
2019 05 25 15  14 53 50.344   -13 51 41.28  .13541 1.1418 161.1 18.5 .838 107
2019 05 25 16  14 53 54.893   -13 48 33.81  .13521 1.1416 161.0 18.5 .858 108
2019 05 25 17  14 53 59.458   -13 45 25.81  .13501 1.1414 161.0 18.5 .878 108
2019 05 25 18  14 54 04.039   -13 42 17.28  .13481 1.1412 161.0 18.5 .898 109
2019 05 25 19  14 54 08.636   -13 39 08.22  .13461 1.1409 160.9 18.5 .919 110
2019 05 25 20  14 54 13.249   -13 35 58.63  .13441 1.1407 160.9 18.5 .940 110
2019 05 25 21  14 54 17.877   -13 32 48.50  .13421 1.1405 160.8 18.5 .962 111
2019 05 25 22  14 54 22.522   -13 29 37.84  .13402 1.1403 160.8 18.5 .984 112
2019 05 25 23  14 54 27.183   -13 26 26.64  .13382 1.1401 160.7 18.5 1.01 112
2019 05 26 00  14 54 31.860   -13 23 14.90  .13362 1.1399 160.7 18.5 1.03 113
2019 05 26 01  14 54 36.554   -13 20 02.62  .13342 1.1397 160.6 18.5 1.05 113
2019 05 26 02  14 54 41.263   -13 16 49.79  .13323 1.1395 160.6 18.5 1.07 114
2019 05 26 03  14 54 45.989   -13 13 36.43  .13303 1.1392 160.5 18.5 1.10 115
2019 05 26 04  14 54 50.731   -13 10 22.52  .13283 1.1390 160.5 18.5 1.12 115
2019 05 26 05  14 54 55.490   -13 07 08.06  .13264 1.1388 160.5 18.5 1.14 116
2019 05 26 06  14 55 00.265   -13 03 53.05  .13244 1.1386 160.4 18.5 1.17 116
2019 05 26 07  14 55 05.057   -13 00 37.49  .13225 1.1384 160.4 18.5 1.19 117
2019 05 26 08  14 55 09.865   -12 57 21.38  .13205 1.1382 160.3 18.5 1.22 117
2019 05 26 09  14 55 14.690   -12 54 04.72  .13185 1.1380 160.3 18.5 1.24 118
2019 05 26 10  14 55 19.531   -12 50 47.51  .13166 1.1378 160.2 18.5 1.27 118
2019 05 26 11  14 55 24.390   -12 47 29.73  .13146 1.1376 160.2 18.5 1.29 119
2019 05 26 12  14 55 29.265   -12 44 11.40  .13127 1.1373 160.1 18.5 1.32 119
2019 05 26 13  14 55 34.157   -12 40 52.51  .13107 1.1371 160.1 18.4 1.35 119
2019 05 26 14  14 55 39.066   -12 37 33.06  .13088 1.1369 160.0 18.4 1.37 120